TimeCAT,TemperatureF,Dew PointF,Humidity,Sea Level PressureIn,VisibilityMPH,Wind Direction,Wind SpeedMPH,Gust SpeedMPH,PrecipitationIn,Events,Conditions,WindDirDegrees,DateUTC
12:00 AM,77.0,62.6,61,29.92,6.2,SE,6.9,-,N/A,,Scattered Clouds,130,2013-01-01 22:00:00
3:00 AM,75.2,62.6,65,29.98,6.2,ESE,10.4,-,N/A,,Partly Cloudy,110,2013-01-02 01:00:00
4:00 AM,69.8,66.2,88,29.98,1.5,ESE,9.2,-,N/A,Rain-Thunderstorm,Heavy Thunderstorms and Rain,110,2013-01-02 02:00:00
5:00 AM,69.8,66.2,88,30.01,6.2,ENE,9.2,-,N/A,Rain-Thunderstorm,Thunderstorms and Rain,70,2013-01-02 03:00:00
6:00 AM,68.0,66.2,94,30.01,6.2,ENE,12.7,-,N/A,Rain-Thunderstorm,Light Thunderstorms and Rain,60,2013-01-02 04:00:00
7:00 AM,68.0,66.2,94,30.01,6.2,ENE,13.8,-,N/A,,Partly Cloudy,60,2013-01-02 05:00:00
8:00 AM,68.0,64.4,88,30.04,6.2,ENE,17.3,-,N/A,,Partly Cloudy,70,2013-01-02 06:00:00
9:00 AM,69.8,64.4,83,30.04,6.2,NE,9.2,-,N/A,,Mostly Cloudy,50,2013-01-02 07:00:00
10:00 AM,71.6,64.4,78,30.04,6.2,NE,9.2,-,N/A,,Mostly Cloudy,40,2013-01-02 08:00:00
11:00 AM,75.2,66.2,73,30.01,6.2,NE,10.4,-,N/A,,Mostly Cloudy,50,2013-01-02 09:00:00
12:00 PM,77.0,64.4,65,30.01,6.2,NE,10.4,-,N/A,,Mostly Cloudy,50,2013-01-02 10:00:00
1:00 PM,77.0,64.4,65,30.01,6.2,ENE,12.7,-,N/A,,Mostly Cloudy,60,2013-01-02 11:00:00
2:00 PM,77.0,66.2,69,29.98,6.2,East,12.7,-,N/A,,Mostly Cloudy,80,2013-01-02 12:00:00
3:00 PM,78.8,62.6,57,29.95,6.2,ENE,12.7,-,N/A,,Mostly Cloudy,60,2013-01-02 13:00:00
4:00 PM,78.8,64.4,61,29.92,6.2,NE,10.4,-,N/A,,Mostly Cloudy,50,2013-01-02 14:00:00
5:00 PM,78.8,64.4,61,29.92,6.2,NE,11.5,-,N/A,,Scattered Clouds,40,2013-01-02 15:00:00
6:00 PM,77.0,66.2,69,29.92,6.2,NE,11.5,-,N/A,,Partly Cloudy,40,2013-01-02 16:00:00
7:00 PM,75.2,66.2,73,29.92,6.2,NNE,6.9,-,N/A,,Partly Cloudy,30,2013-01-02 17:00:00
8:00 PM,73.4,66.2,78,29.95,6.2,NNE,4.6,-,N/A,,Partly Cloudy,20,2013-01-02 18:00:00
9:00 PM,73.4,68.0,83,29.95,-9999.0,North,3.5,-,N/A,,Clear,360,2013-01-02 19:00:00
10:00 PM,71.6,68.0,88,29.95,-9999.0,NNE,3.5,-,N/A,,Clear,30,2013-01-02 20:00:00
11:00 PM,71.6,68.0,88,29.95,6.2,North,4.6,-,N/A,,Scattered Clouds,10,2013-01-02 21:00:00